Weather History for West Palm Beach, FL

Change the Weather History Date:

Thursday, December 13, 2012

  Actual Average Record
Temperature  
Mean Temperature 71 °F 68 °F  
Max Temperature 77 °F 77 °F 87 °F (1941)
Min Temperature 65 °F 61 °F 30 °F (1962)
Degree Days  
Heating Degree Days 0 2  
Month to date heating degree days 0 16  
Since 1 July heating degree days 12 28  
Cooling Degree Days 6 5  
Month to date cooling degree days 137 74  
Year to date cooling degree days 4161 3940  
Growing Degree Days 20 (Base 50)    
Moisture  
Dew Point 68 °F    
Average Humidity 84    
Maximum Humidity 94    
Minimum Humidity 73    
Precipitation  
Precipitation 0.45 in 0.11 in 2.17 in (1935)
Month to date precipitation 1.08 1.38  
Year to date precipitation 78.68 60.33  
Snow  
Snow 0.00 in - - ()
Month to date snowfall 0.0  
Since 1 July snowfall 0.0  
Snow Depth 0.00 in    
Sea Level Pressure  
Sea Level Pressure 30.08 in    
Wind  
Wind Speed 9 mph (NW)    
Max Wind Speed 18 mph    
Max Gust Speed 22 mph    
Visibility 7 miles    
Events Fog , Rain    
T = Trace of Precipitation, MM = Missing Value Source: NWS Daily Summary

Daily Weather History Graph

Daily Weather History Graph

Search for Another Location

Airport:

Trip Planner

Search our weather history database for the weather conditions in past years. The results will help you decide how hot, cold, wet, or windy it might be!

Date:

Astronomy

Dec. 13, 2012 Rise Set
Actual Time 7:00 AM EST 5:29 PM EST
Civil Twilight 6:34 AM EST 5:54 PM EST
Nautical Twilight 6:06 AM EST 6:23 PM EST
Astronomical Twilight 5:37 AM EST 6:52 PM EST
Moon 7:08 AM EST (12/13) 6:07 PM EST (12/13)
Length of Visible Light 11h 19m
Length of Day
10h 28m
New Moon, 0% of the Moon is Illuminated
Dec 13
New Moon
Dec 20
First Quarter
Dec 28
Full
Jan 4
Last Quarter
Jan 11
New

Hourly Weather History & Observations

Time (EST) Temp. Dew Point Humidity Pressure Visibility Wind Dir Wind Speed Gust Speed Precip Events Conditions
12:53 AM 73.9 °F 70.0 °F 87% 30.05 in 10.0 mi WSW 3.5 mph - N/A   Mostly Cloudy
1:53 AM 73.9 °F 70.0 °F 87% 30.04 in 10.0 mi SSW 5.8 mph - N/A   Scattered Clouds
2:53 AM 73.9 °F 70.0 °F 87% 30.04 in 10.0 mi SW 5.8 mph - N/A   Overcast
3:53 AM 73.9 °F 70.0 °F 87% 30.02 in 10.0 mi SW 5.8 mph - N/A   Mostly Cloudy
4:53 AM 71.1 °F 69.1 °F 93% 30.03 in 10.0 mi West 6.9 mph - N/A   Scattered Clouds
5:53 AM 72.0 °F 70.0 °F 93% 30.04 in 10.0 mi WSW 4.6 mph - N/A   Mostly Cloudy
6:53 AM 72.0 °F 70.0 °F 93% 30.05 in 10.0 mi SSW 5.8 mph - N/A   Mostly Cloudy
7:53 AM 73.0 °F 71.1 °F 93% 30.06 in 10.0 mi WSW 5.8 mph - N/A   Mostly Cloudy
7:59 AM 73.4 °F 71.6 °F 94% 30.07 in 10.0 mi WSW 8.1 mph - N/A   Mostly Cloudy
8:29 AM 73.4 °F 71.6 °F 94% 30.07 in 10.0 mi WSW 8.1 mph - N/A   Mostly Cloudy
8:53 AM 75.0 °F 73.0 °F 94% 30.07 in 10.0 mi WSW 6.9 mph - N/A   Mostly Cloudy
9:16 AM 75.2 °F 71.6 °F 89% 30.08 in 10.0 mi WSW 8.1 mph - N/A   Mostly Cloudy
9:39 AM 73.4 °F 71.6 °F 94% 30.09 in 2.5 mi Variable 5.8 mph - 0.00 in Rain Heavy Rain
9:51 AM 73.4 °F 71.6 °F 94% 30.09 in 1.5 mi NNW 9.2 mph - 0.20 in Rain Heavy Rain
9:53 AM 73.0 °F 71.1 °F 93% 30.09 in 1.5 mi NNW 9.2 mph - 0.21 in Rain Rain
10:12 AM 71.6 °F 69.8 °F 94% 30.10 in 0.8 mi North 13.8 mph - 0.09 in Rain Rain
10:21 AM 71.6 °F 69.8 °F 94% 30.10 in 1.5 mi NNW 13.8 mph - 0.10 in Rain Light Rain
10:38 AM 71.6 °F 69.8 °F 94% 30.11 in 0.8 mi NW 9.2 mph - 0.14 in Rain Rain
10:45 AM 71.6 °F 69.8 °F 94% 30.11 in 1.2 mi NW 9.2 mph - 0.16 in Rain Light Rain
10:53 AM 71.1 °F 69.1 °F 93% 30.11 in 1.0 mi NW 11.5 mph - 0.17 in Rain Heavy Rain
11:06 AM 71.6 °F 69.8 °F 94% 30.10 in 0.5 mi NNW 11.5 mph - 0.05 in Fog , Rain Rain
11:25 AM 71.6 °F 69.8 °F 94% 30.10 in 1.5 mi North 11.5 mph - 0.07 in Rain Light Rain
11:37 AM 71.6 °F 68.0 °F 88% 30.11 in 2.5 mi NNW 11.5 mph - 0.07 in Rain Light Rain
11:46 AM 71.6 °F 69.8 °F 94% 30.10 in 3.0 mi NNW 10.4 mph - 0.07 in Rain Light Rain
11:53 AM 71.1 °F 68.0 °F 90% 30.10 in 3.0 mi NNW 10.4 mph - 0.07 in   Overcast
12:53 PM 73.0 °F 68.0 °F 84% 30.08 in 10.0 mi North 9.2 mph - 0.00 in   Overcast
1:53 PM 73.0 °F 66.0 °F 79% 30.07 in 10.0 mi NNW 12.7 mph - N/A   Overcast
2:32 PM 73.4 °F 64.4 °F 73% 30.07 in 10.0 mi North 13.8 mph - N/A   Overcast
2:41 PM 73.4 °F 64.4 °F 73% 30.06 in 10.0 mi North 16.1 mph 19.6 mph N/A   Overcast
2:53 PM 73.0 °F 64.9 °F 76% 30.06 in 10.0 mi NNW 13.8 mph 19.6 mph N/A   Overcast
3:53 PM 72.0 °F 64.0 °F 76% 30.06 in 10.0 mi North 12.7 mph - N/A   Overcast
4:53 PM 71.6 °F 64.4 °F 78% 30.06 in 10.0 mi North 12.7 mph - N/A   Overcast
5:29 PM 69.8 °F 64.4 °F 83% 30.07 in 10.0 mi NNW 11.5 mph - N/A   Overcast
5:53 PM 69.8 °F 64.4 °F 83% 30.07 in 10.0 mi NNW 11.5 mph - N/A   Overcast
7:53 PM 68.0 °F 64.0 °F 87% 30.08 in 10.0 mi NNW 10.4 mph - N/A   Scattered Clouds
8:53 PM 66.9 °F 64.0 °F 90% 30.09 in 10.0 mi NW 10.4 mph - N/A   Scattered Clouds
9:53 PM 66.9 °F 63.0 °F 87% 30.10 in 10.0 mi NW 3.5 mph - N/A   Mostly Cloudy
10:53 PM 66.0 °F 64.0 °F 93% 30.09 in 10.0 mi NNW 8.1 mph - N/A   Scattered Clouds
11:53 PM 64.9 °F 63.0 °F 93% 30.09 in 10.0 mi NW 8.1 mph - N/A   Scattered Clouds